St. Johns, AZ

6:15 AM MST on April 27, 2017 (GMT -0700)
Saint Johns Industrial

Weather History for KSJN - March, 2014

Change the Weather History Date:

Sunday, March 30, 2014

  Actual Average (KLSB) Record (KLSB)
Temperature  
Mean Temperature 48 °F -  
Max Temperature 61 °F 70 °F 82 °F (2015)
Min Temperature 35 °F 32 °F 35 °F (2014)
Degree Days  
Heating Degree Days 17    
Moisture  
Dew Point 13 °F    
Average Humidity 22    
Maximum Humidity 39    
Minimum Humidity 9    
Precipitation  
Precipitation 0.00 in - - ()
Sea Level Pressure  
Sea Level Pressure 29.80 in    
Wind  
Wind Speed 10 mph (WSW)    
Max Wind Speed 32 mph    
Max Gust Speed 48 mph    
Visibility 10 miles    
Events      
Averages and records for this station are not official NWS values.
T = Trace of Precipitation, MM = Missing Value Source: NWS Daily Summary

Daily Weather History Graph

Daily Weather History Graph

Search for Another Location

Airport or City:

Trip Planner

Search our weather history database for the weather conditions in past years. The results will help you decide how hot, cold, wet, or windy it might be!

Date:

Astronomy

Mar. 30, 2014 Rise Set
Actual Time 6:07 AM MST 6:37 PM MST
Civil Twilight 5:42 AM MST 7:02 PM MST
Nautical Twilight 5:12 AM MST 7:32 PM MST
Astronomical Twilight 4:42 AM MST 8:02 PM MST
Moon 5:55 AM MST (3/30) 6:51 PM MST (3/30)
Length of Visible Light 13h 20m
Length of Day
12h 29m
New Moon, 0% of the Moon is Illuminated
Mar 30
New Moon
Apr 7
First Quarter
Apr 15
Full
Apr 22
Last Quarter
Apr 28
New

Hourly Weather History & Observations

Time (MST) Temp. Windchill Dew Point Humidity Pressure Visibility Wind Dir Wind Speed Gust Speed Precip Events Conditions
12:54 AM 48.9 °F - 12.9 °F 24% 29.88 in 10.0 mi Calm Calm - N/A   Clear
1:54 AM 48.0 °F - 10.9 °F 22% 29.85 in 10.0 mi East 4.6 mph - N/A   Clear
2:54 AM 43.0 °F 38.8 °F 10.9 °F 27% 29.83 in 10.0 mi North 6.9 mph - N/A   Clear
3:54 AM 39.9 °F - 10.9 °F 31% 29.83 in 10.0 mi Calm Calm - N/A   Clear
4:54 AM 39.0 °F 33.4 °F 10.9 °F 32% 29.82 in 10.0 mi NNW 8.1 mph - N/A   Clear
5:54 AM 41.0 °F 35.8 °F 10.9 °F 29% 29.82 in 10.0 mi NNW 8.1 mph - N/A   Clear
6:54 AM 41.0 °F - 12.0 °F 31% 29.84 in 10.0 mi Calm Calm - N/A   Clear
7:54 AM 44.1 °F - 12.0 °F 27% 29.85 in 10.0 mi Calm Calm - N/A   Clear
8:54 AM 55.9 °F - 12.9 °F 18% 29.81 in 10.0 mi South 5.8 mph - N/A   Clear
9:54 AM 64.9 °F - 10.0 °F 12% 29.76 in 10.0 mi SSW 18.4 mph 27.6 mph N/A   Clear
10:54 AM 66.9 °F - 10.9 °F 11% 29.74 in 10.0 mi SW 20.7 mph 32.2 mph N/A   Clear
11:54 AM 68.0 °F - 10.9 °F 11% 29.73 in 10.0 mi SW 29.9 mph 41.4 mph N/A   Clear
12:54 PM 68.0 °F - 12.9 °F 12% 29.73 in 10.0 mi SW 29.9 mph 40.3 mph N/A   Clear
1:54 PM 68.0 °F - 12.9 °F 12% 29.71 in 10.0 mi SW 32.2 mph 42.6 mph N/A   Clear
2:54 PM 66.0 °F - 12.9 °F 13% 29.72 in 10.0 mi SSW 28.8 mph 46.0 mph N/A   Clear
3:54 PM 66.0 °F - 15.1 °F 14% 29.73 in 10.0 mi SW 31.1 mph 48.3 mph N/A   Clear
4:54 PM 64.9 °F - 3.0 °F 9% 29.74 in 10.0 mi WSW 32.2 mph 44.9 mph N/A   Clear
5:54 PM 61.0 °F - 5.0 °F 11% 29.75 in 10.0 mi WSW 21.9 mph 38.0 mph N/A   Clear
6:54 PM 57.0 °F - 8.1 °F 14% 29.79 in 10.0 mi WSW 21.9 mph 33.4 mph N/A   Clear
7:54 PM 53.1 °F - 15.1 °F 22% 29.83 in 10.0 mi WSW 12.7 mph - N/A   Clear
8:54 PM 51.1 °F - 19.0 °F 28% 29.83 in 10.0 mi WSW 13.8 mph - N/A   Clear
9:54 PM 46.9 °F - 19.9 °F 34% 29.83 in 10.0 mi WSW 5.8 mph - N/A   Clear
10:54 PM 44.1 °F 39.5 °F 19.9 °F 38% 29.82 in 10.0 mi West 8.1 mph - N/A   Clear
11:54 PM 45.0 °F 38.2 °F 21.0 °F 39% 29.81 in 10.0 mi West 15.0 mph - N/A   Clear